Date,TemperatureHighF,TemperatureAvgF,TemperatureLowF,DewpointHighF,DewpointAvgF,DewpointLowF,HumidityHigh,HumidityAvg,HumidityLow,PressureMaxIn,PressureMinIn,WindSpeedMaxMPH,WindSpeedAvgMPH,GustSpeedMaxMPH,PrecipitationSumIn
2013-1-1,32,29,27,31,27,23,99,94,86,0.00,40.00,9,5,12,0.00
2013-1-2,21,13,6,10,5,2,95,71,51,0.00,40.00,6,4,9,0.00
2013-1-3,29,21,11,25,14,5,89,75,61,0.00,40.00,16,8,21,0.00
2013-1-4,26,20,14,20,16,12,92,84,76,0.00,40.00,9,6,18,0.00
2013-1-5,36,28,17,33,25,16,99,88,68,0.00,40.00,14,7,21,0.00
2013-1-6,35,31,25,33,28,21,94,88,84,0.00,40.00,19,10,28,0.00
2013-1-7,31,25,13,25,22,13,98,89,74,0.00,40.00,12,5,17,0.00
2013-1-8,41,29,24,30,25,22,93,85,60,0.00,40.00,10,6,12,0.00
2013-1-9,43,39,32,38,33,26,92,80,68,0.00,40.00,14,7,21,0.00
2013-1-10,44,34,27,40,30,25,98,86,65,0.00,40.00,14,7,19,0.00
2013-1-11,58,52,44,55,49,41,99,90,72,0.00,40.00,15,10,24,0.00
2013-1-12,61,56,51,55,53,47,99,89,77,0.00,40.00,12,6,17,0.00
2013-1-13,54,38,24,54,38,21,99,98,89,0.00,40.00,18,9,24,0.00
2013-1-14,23,20,17,19,16,12,91,84,73,0.00,40.00,14,7,21,0.00
2013-1-15,29,24,18,22,19,16,96,81,59,0.00,40.00,12,6,14,0.00
2013-1-16,35,28,22,26,23,21,97,82,59,0.00,40.00,12,4,17,0.00
2013-1-17,39,30,22,29,22,14,95,73,49,0.00,40.00,16,7,24,0.00
2013-1-18,37,28,20,26,20,15,91,73,52,0.00,40.00,21,9,33,0.00
2013-1-19,51,42,36,36,30,25,81,61,50,0.00,40.00,17,11,35,0.00
2013-1-20,42,26,20,37,16,10,81,64,56,0.00,40.00,30,14,51,0.00
2013-1-21,21,15,8,11,6,-2,83,68,56,0.00,40.00,23,15,34,0.00
2013-1-22,14,8,4,2,0,-2,79,68,57,0.00,40.00,20,12,26,0.00
2013-1-23,20,14,10,17,6,0,91,70,57,0.00,40.00,13,7,23,0.00
2013-1-24,18,14,10,14,9,7,88,82,74,0.00,40.00,16,8,22,0.00
2013-6-12,86,84,82,76,75,74,80,73,67,0.00,40.00,10,8,20,0.00
2013-6-13,74,68,66,68,62,53,99,84,51,0.00,40.00,16,8,26,0.00
2013-6-14,77,65,57,61,58,56,97,79,49,0.00,40.00,6,4,11,0.00
2013-6-15,74,67,60,69,64,59,97,91,80,0.00,40.00,7,3,10,0.00
2013-6-16,81,74,67,71,68,65,98,82,65,0.00,40.00,23,8,29,0.00
2013-6-17,83,70,67,72,68,61,98,94,48,0.00,40.00,4,2,7,0.00
2013-6-18,78,72,69,69,64,60,95,78,56,0.00,40.00,11,7,16,0.00
2013-6-19,79,70,61,61,56,53,96,65,42,0.00,40.00,7,4,12,0.00
2013-6-20,77,65,60,63,60,56,94,83,62,0.00,40.00,4,3,7,0.00
2013-6-26,70,70,70,69,69,69,97,97,97,0.00,40.00,4,4,6,0.00